Goldsboro, NC

9:22 AM EDT on June 25, 2017 (GMT -0400)
Goldsboro-Wayne Municipal

Weather History for KGWW - November, 2013

Change the Weather History Date:

Wednesday, November 20, 2013

  Actual Average (KGSB) Record (KGSB)
Temperature  
Mean Temperature 46 °F -  
Max Temperature 55 °F 62 °F 76 °F (2011)
Min Temperature 37 °F 41 °F 31 °F (2008)
Degree Days  
Heating Degree Days 19    
Moisture  
Dew Point 36 °F    
Average Humidity 68    
Maximum Humidity 82    
Minimum Humidity 50    
Precipitation  
Precipitation 0.00 in - - ()
Sea Level Pressure  
Sea Level Pressure 30.38 in    
Wind  
Wind Speed 9 mph (NNE)    
Max Wind Speed 14 mph    
Max Gust Speed 20 mph    
Visibility 10 miles    
Events      
Averages and records for this station are not official NWS values.
T = Trace of Precipitation, MM = Missing Value Source: NWS Daily Summary

Daily Weather History Graph

Daily Weather History Graph

Search for Another Location

Airport or City:

Trip Planner

Search our weather history database for the weather conditions in past years. The results will help you decide how hot, cold, wet, or windy it might be!

Date:

Astronomy

Nov. 20, 2013 Rise Set
Actual Time 6:52 AM EST 5:02 PM EST
Civil Twilight 6:25 AM EST 5:29 PM EST
Nautical Twilight 5:54 AM EST 6:00 PM EST
Astronomical Twilight 5:23 AM EST 6:31 PM EST
Moon 7:43 PM EST (11/20) 9:15 AM EST (11/20)
Length of Visible Light 11h 04m
Length of Day
10h 09m
Waning Gibbous, 91% of the Moon is Illuminated
Nov 20
Waning Gibbous
Nov 25
Last Quarter
Dec 2
New
Dec 9
First Quarter
Dec 17
Full

Hourly Weather History & Observations

Time (EST) Temp. Windchill Dew Point Humidity Pressure Visibility Wind Dir Wind Speed Gust Speed Precip Events Conditions
12:15 AM 40.3 °F 36.3 °F 32.4 °F 73% 30.32 in 10.0 mi NNE 5.8 mph - N/A   Clear
12:35 AM 38.8 °F 34.6 °F 32.0 °F 76% 30.31 in 10.0 mi North 5.8 mph - N/A   Clear
12:55 AM 37.0 °F 32.4 °F 32.0 °F 82% 30.31 in 10.0 mi NNE 5.8 mph - N/A   Clear
1:15 AM 38.5 °F 36.1 °F 32.0 °F 78% 30.33 in 10.0 mi NNE 3.5 mph - N/A   Clear
1:35 AM 37.2 °F 31.9 °F 32.0 °F 81% 30.31 in 10.0 mi NNE 6.9 mph - N/A   Clear
1:55 AM 38.3 °F 32.5 °F 31.8 °F 77% 30.31 in 10.0 mi NNE 8.1 mph - N/A   Clear
2:15 AM 38.3 °F 33.2 °F 31.5 °F 76% 30.34 in 10.0 mi NNE 6.9 mph - N/A   Clear
2:35 AM 38.3 °F 32.5 °F 31.1 °F 75% 30.33 in 10.0 mi NNE 8.1 mph - N/A   Clear
2:55 AM 38.7 °F 31.8 °F 30.7 °F 73% 30.33 in 10.0 mi NNE 10.4 mph - N/A   Clear
3:15 AM 39.0 °F 32.3 °F 30.7 °F 72% 30.32 in 10.0 mi North 10.4 mph 16.1 mph N/A   Clear
3:35 AM 39.2 °F 32.0 °F 30.7 °F 72% 30.33 in 10.0 mi North 11.5 mph 17.3 mph N/A   Clear
3:55 AM 39.0 °F 32.3 °F 30.9 °F 73% 30.32 in 10.0 mi NNE 10.4 mph - N/A   Clear
4:15 AM 38.8 °F 31.6 °F 31.1 °F 74% 30.32 in 10.0 mi NNE 11.5 mph - N/A   Clear
4:35 AM 38.8 °F 32.1 °F 31.1 °F 74% 30.32 in 10.0 mi NNE 10.4 mph - N/A   Clear
4:55 AM 39.2 °F 33.6 °F 31.1 °F 73% 30.32 in 10.0 mi NNE 8.1 mph - N/A   Clear
5:15 AM 39.2 °F 33.6 °F 31.5 °F 74% 30.33 in 10.0 mi NNE 8.1 mph - N/A   Clear
5:35 AM 39.2 °F 33.6 °F 31.3 °F 73% 30.34 in 10.0 mi North 8.1 mph - N/A   Clear
5:55 AM 39.0 °F 33.4 °F 31.1 °F 73% 30.36 in 10.0 mi North 8.1 mph - N/A   Clear
6:15 AM 38.8 °F 33.2 °F 31.1 °F 74% 30.37 in 10.0 mi North 8.1 mph - N/A   Clear
6:35 AM 38.5 °F 32.7 °F 31.1 °F 75% 30.36 in 10.0 mi NNE 8.1 mph - N/A   Clear
6:55 AM 38.7 °F 30.9 °F 31.1 °F 74% 30.36 in 10.0 mi NNE 12.7 mph - N/A   Clear
7:15 AM 38.3 °F 32.5 °F 31.1 °F 75% 30.37 in 10.0 mi NNE 8.1 mph - N/A   Clear
7:35 AM 39.2 °F 32.5 °F 31.6 °F 74% 30.38 in 10.0 mi North 10.4 mph - N/A   Clear
7:55 AM 40.3 °F 33.4 °F 32.0 °F 72% 30.38 in 10.0 mi NNE 11.5 mph - N/A   Scattered Clouds
8:15 AM 41.4 °F 35.2 °F 31.8 °F 69% 30.40 in 10.0 mi NNE 10.4 mph 17.3 mph N/A   Clear
8:35 AM 41.4 °F 34.0 °F 32.0 °F 69% 30.41 in 10.0 mi North 13.8 mph - N/A   Mostly Cloudy
8:55 AM 44.1 °F 38.1 °F 32.5 °F 64% 30.41 in 10.0 mi North 11.5 mph 18.4 mph N/A   Overcast
9:15 AM 43.5 °F 38.3 °F 32.9 °F 66% 30.42 in 10.0 mi NNE 9.2 mph 17.3 mph N/A   Overcast
9:35 AM 44.1 °F 37.7 °F 32.9 °F 65% 30.42 in 10.0 mi NNE 12.7 mph 16.1 mph N/A   Overcast
9:55 AM 45.5 °F 39.6 °F 34.0 °F 64% 30.43 in 10.0 mi NNE 12.7 mph 16.1 mph N/A   Overcast
10:15 AM 45.7 °F 39.8 °F 34.0 °F 64% 30.43 in 10.0 mi NNE 12.7 mph 18.4 mph N/A   Overcast
10:35 AM 47.7 °F - 34.5 °F 60% 30.42 in 10.0 mi NNE 12.7 mph 18.4 mph N/A   Overcast
10:55 AM 48.2 °F - 35.2 °F 61% 30.42 in 10.0 mi NNE 12.7 mph 19.6 mph N/A   Mostly Cloudy
11:15 AM 48.0 °F - 35.6 °F 62% 30.42 in 10.0 mi NNE 13.8 mph 17.3 mph N/A   Overcast
11:35 AM 49.1 °F - 35.8 °F 60% 30.41 in 10.0 mi NNE 12.7 mph - N/A   Overcast
11:55 AM 51.3 °F - 36.5 °F 57% 30.40 in 10.0 mi North 12.7 mph - N/A   Overcast
12:15 PM 52.9 °F - 36.3 °F 53% 30.39 in 10.0 mi NE 11.5 mph 17.3 mph N/A   Mostly Cloudy
12:35 PM 52.3 °F - 36.5 °F 55% 30.39 in 10.0 mi NNE 12.7 mph - N/A   Overcast
12:55 PM 52.0 °F - 36.3 °F 55% 30.39 in 10.0 mi NNE 12.7 mph 16.1 mph N/A   Overcast
1:15 PM 52.9 °F - 36.1 °F 53% 30.38 in 10.0 mi NE 10.4 mph - N/A   Overcast
1:35 PM 54.7 °F - 36.5 °F 50% 30.38 in 10.0 mi NNE 12.7 mph 17.3 mph N/A   Mostly Cloudy
1:55 PM 55.0 °F - 36.7 °F 50% 30.37 in 10.0 mi NE 10.4 mph 19.6 mph N/A   Scattered Clouds
2:15 PM 54.5 °F - 36.7 °F 51% 30.37 in 10.0 mi NE 10.4 mph 16.1 mph N/A   Mostly Cloudy
2:35 PM 53.8 °F - 37.2 °F 54% 30.37 in 10.0 mi NE 11.5 mph - N/A   Mostly Cloudy
2:55 PM 54.0 °F - 37.4 °F 54% 30.37 in 10.0 mi NE 9.2 mph - N/A   Mostly Cloudy
3:15 PM 54.5 °F - 38.3 °F 54% 30.37 in 10.0 mi NNE 9.2 mph 16.1 mph N/A   Overcast
3:35 PM 53.4 °F - 38.7 °F 57% 30.38 in 10.0 mi ENE 6.9 mph - N/A   Overcast
3:55 PM 53.6 °F - 38.7 °F 57% 30.38 in 10.0 mi NE 10.4 mph - N/A   Mostly Cloudy
4:15 PM 52.7 °F - 39.2 °F 60% 30.38 in 10.0 mi NE 8.1 mph - N/A   Overcast
4:35 PM 52.2 °F - 39.2 °F 61% 30.39 in 10.0 mi NNE 8.1 mph - N/A   Overcast
4:55 PM 51.1 °F - 39.2 °F 64% 30.39 in 10.0 mi NNE 5.8 mph - N/A   Mostly Cloudy
5:15 PM 49.6 °F - 39.6 °F 68% 30.39 in 10.0 mi NNE 3.5 mph - N/A   Mostly Cloudy
5:35 PM 49.5 °F - 40.3 °F 71% 30.39 in 10.0 mi North 3.5 mph - N/A   Overcast
5:55 PM 50.5 °F - 40.5 °F 68% 30.40 in 10.0 mi North 4.6 mph - N/A   Overcast
6:15 PM 50.9 °F - 40.6 °F 68% 30.41 in 10.0 mi NNE 6.9 mph - N/A   Overcast
6:35 PM 50.9 °F - 41.0 °F 69% 30.41 in 10.0 mi NE 5.8 mph - N/A   Overcast
6:55 PM 50.9 °F - 40.8 °F 68% 30.41 in 10.0 mi NE 9.2 mph - N/A   Overcast
7:15 PM 50.9 °F - 40.6 °F 68% 30.41 in 10.0 mi NE 10.4 mph 16.1 mph N/A   Overcast
7:35 PM 49.8 °F - 40.3 °F 70% 30.42 in 10.0 mi NE 6.9 mph - N/A   Mostly Cloudy
7:55 PM 49.1 °F - 40.1 °F 71% 30.42 in 10.0 mi NE 10.4 mph - N/A   Scattered Clouds
8:15 PM 47.8 °F - 40.1 °F 75% 30.42 in 10.0 mi NE 8.1 mph - N/A   Clear
8:35 PM 48.0 °F - 39.7 °F 73% 30.42 in 10.0 mi NE 5.8 mph - N/A   Scattered Clouds
8:55 PM 47.3 °F - 39.4 °F 74% 30.43 in 10.0 mi NE 6.9 mph - N/A   Scattered Clouds
9:15 PM 46.8 °F - 39.6 °F 76% 30.42 in 10.0 mi NE 11.5 mph - N/A   Scattered Clouds
9:35 PM 46.4 °F 42.4 °F 39.4 °F 77% 30.43 in 10.0 mi NNE 8.1 mph - N/A   Scattered Clouds
9:55 PM 46.0 °F 42.5 °F 39.4 °F 78% 30.44 in 10.0 mi NNE 6.9 mph - N/A   Scattered Clouds
10:15 PM 45.7 °F 41.5 °F 39.2 °F 78% 30.43 in 10.0 mi NNE 8.1 mph - N/A   Scattered Clouds
10:35 PM 45.5 °F 42.5 °F 39.2 °F 79% 30.44 in 10.0 mi NNE 5.8 mph - N/A   Scattered Clouds
10:55 PM 45.7 °F 41.5 °F 39.6 °F 79% 30.44 in 10.0 mi NNE 8.1 mph - N/A   Mostly Cloudy
11:15 PM 45.5 °F 41.3 °F 39.6 °F 80% 30.43 in 10.0 mi NNE 8.1 mph - N/A   Scattered Clouds
11:35 PM 45.5 °F 42.5 °F 39.6 °F 80% 30.42 in 10.0 mi NE 5.8 mph - N/A   Scattered Clouds
11:55 PM 45.5 °F 42.5 °F 39.7 °F 80% 30.43 in 10.0 mi NE 5.8 mph - N/A   Mostly Cloudy